EW8130 Weather Reports


time (UTC)temp
F
wind
direction
speed
knots
gust
knots
rain 1hr
in
rain 24hr
in
rain mn
in
humidity
%
barometer
mb
20260507020057 59 266 0.9 8.7 0.00 0.00 0.00 84 994.8
20260507014550 59 279 0.0 8.7 0.00 0.00 0.00 85 994.2
20260507013049 58 272 0.0 0.0 0.00 0.00 0.00 85 994.0
20260507011550 58 303 0.0 0.9 0.00 0.00 0.00 85 993.9
20260507010049 58 298 0.0 7.8 0.00 0.00 0.00 84 993.6
20260507004553 58 325 0.0 0.9 0.00 0.00 0.00 84 993.6
20260507003051 59 283 0.0 4.3 0.00 0.00 0.00 84 993.6
20260507001609 59 291 0.0 8.7 0.00 0.00 0.00 83 993.2
20260507000047 59 243 0.0 6.1 0.00 0.00 0.00 82 993.3
20260506234552 59 313 0.0 8.7 0.00 0.00 0.00 82 992.9
20260506233046 59 295 0.0 0.0 0.00 0.00 0.00 82 993.1
20260506231554 59 280 0.0 0.9 0.00 0.00 0.00 81 993.0
20260506230054 59 280 0.0 0.9 0.00 0.00 0.00 81 992.9
20260506224544 60 269 0.0 8.7 0.00 0.00 0.00 81 992.8
20260506223043 60 248 0.9 6.1 0.00 0.00 0.00 80 992.5
20260506221557 60 275 0.0 5.2 0.00 0.00 0.00 80 992.4
20260506220043 60 309 0.0 7.0 0.00 0.00 0.00 80 991.9
20260506214542 60 226 0.0 8.7 0.00 0.00 0.00 80 992.1
20260506213041 59 281 0.0 6.1 0.00 0.00 0.00 83 992.3
20260506211541 59 280 0.0 7.0 0.00 0.00 0.00 83 992.4
20260506210052 60 276 0.0 0.9 0.00 0.00 0.00 80 992.5
20260506204546 60 289 0.0 0.9 0.00 0.00 0.00 79 993.0
20260506203041 60 242 0.0 1.7 0.00 0.00 0.00 78 992.8
20260506201539 60 224 0.0 1.7 0.00 0.00 0.00 79 993.0
20260506200040 59 260 0.0 0.9 0.00 0.00 0.00 80 993.1
20260506194537 59 258 0.0 1.7 0.00 0.00 0.00 80 993.5
20260506193043 58 197 0.0 2.6 0.00 0.00 0.00 82 992.8
20260506191538 57 226 0.0 6.1 0.00 0.00 0.00 82 993.7
20260506190038 57 282 0.0 7.0 0.00 0.00 0.00 83 993.4
20260506184543 57 251 0.0 7.0 0.00 0.00 0.00 83 993.0
20260506183034 57 314 0.0 0.0 0.00 0.00 0.00 83 993.1
20260506181540 57 293 0.0 8.7 0.00 0.00 0.00 83 993.0
20260506180035 57 359 0.0 10.4 0.00 0.00 0.00 83 991.5
20260506174536 57 245 0.0 8.7 0.00 0.00 0.00 83 991.7
20260506173033 56 279 0.0 7.8 0.00 0.00 0.00 84 992.4
20260506171535 56 252 0.0 0.9 0.00 0.00 0.00 84 993.9
20260506170038 56 261 0.0 7.0 0.00 0.00 0.00 84 993.7
20260506164545 57 266 1.7 8.7 0.00 0.00 0.00 82 992.5
20260506163035 56 284 0.0 8.7 0.00 0.00 0.00 81 993.6
20260506161530 55 259 0.9 7.8 0.00 0.00 0.00 85 993.0
20260506160033 55 249 0.0 1.7 0.00 0.00 0.00 86 993.5
20260506154528 54 279 0.0 0.0 0.00 0.00 0.00 85 993.8
20260506153027 55 267 0.0 7.0 0.00 0.00 0.00 83 994.0
20260506151527 55 222 0.0 0.9 0.00 0.00 0.00 83 995.0
20260506150023 54 242 2.6 10.4 0.00 0.00 0.00 83 993.7
20260506144527 54 243 0.0 6.1 0.00 0.00 0.00 83 993.6
20260506143024 55 283 0.0 0.9 0.00 0.00 0.00 82 993.2
20260506141528 54 271 0.0 0.9 0.00 0.00 0.00 83 992.9
20260506140017 54 180 0.9 8.7 0.00 0.00 0.00 84 992.6
20260506134516 54 253 0.0 0.9 0.00 0.00 0.00 84 992.6
20260506133015 54 235 0.0 3.5 0.00 0.00 0.00 83 992.2
20260506131513 55 298 0.0 7.8 0.00 0.00 0.00 82 992.0
20260506130012 55 274 0.0 11.3 0.00 0.00 0.00 81 992.1
20260506124509 55 251 0.0 7.0 0.00 0.00 0.00 80 991.8
20260506123007 55 228 0.0 7.8 0.00 0.00 0.00 80 991.4
20260506121511 56 244 0.0 4.3 0.00 0.00 0.00 79 991.3
20260506120008 56 241 0.9 8.7 0.00 0.00 0.00 78 991.3
20260506114602 56 222 0.0 6.1 0.00 0.00 0.00 78 991.1
20260506113058 57 256 0.0 8.7 0.00 0.00 0.00 78 990.7
20260506111555 57 231 0.0 1.7 0.00 0.00 0.00 76 990.6
20260506110104 58 252 0.0 0.9 0.00 0.00 0.00 77 990.2
20260506103050 58 254 0.0 0.9 0.00 0.00 0.00 76 989.8
20260506101547 58 246 0.0 7.8 0.00 0.00 0.00 77 989.4
20260506100053 58 279 0.0 0.9 0.00 0.00 0.00 77 989.2
20260506094544 58 281 0.0 4.3 0.00 0.00 0.00 76 989.1
20260506093042 59 273 0.0 8.7 0.00 0.00 0.00 76 989.2
20260506091541 59 233 0.0 1.7 0.00 0.00 0.00 77 989.0
20260506090041 59 295 0.0 0.9 0.00 0.00 0.00 78 989.0
20260506084610 59 290 0.0 0.0 0.00 0.00 0.00 78 988.7
20260506083039 59 291 0.0 0.9 0.00 0.00 0.00 78 988.5
20260506081548 60 262 0.0 0.9 0.00 0.00 0.00 78 988.4
20260506073027 61 276 0.0 0.9 0.00 0.00 0.00 78 988.6
20260506071526 62 253 0.0 0.9 0.00 0.00 0.00 79 988.6
20260506061517 63 286 0.0 2.6 0.00 0.00 0.00 79 988.3
20260506044602 68 205 0.9 6.1 0.00 0.00 0.00 76 988.0
20260506043058 69 359 0.0 1.7 0.00 0.00 0.00 76 987.7
20260506041606 70 359 0.0 3.5 0.00 0.00 0.00 76 987.5
20260506040053 71 359 0.0 0.9 0.00 0.00 0.00 76 987.4
20260506034554 72 359 0.0 7.8 0.00 0.00 0.00 75 987.1
20260506033050 73 280 0.0 7.0 0.00 0.00 0.00 73 986.9
20260506031551 74 359 0.0 1.7 0.00 0.00 0.00 73 986.9
20260506030045 74 236 0.0 2.6 0.00 0.00 0.00 72 986.5
20260506024542 75 359 0.0 1.7 0.00 0.00 0.00 73 986.2
20260506023059 75 291 0.0 0.9 0.00 0.00 0.00 73 985.4
20260506021604 77 249 0.0 7.0 0.00 0.00 0.00 71 985.1